Showing default

NANOFF A, 58810

Orbit data source: Space-Track

NANOFF A, 58810 is a payload satellite owned by TUB (DE) in SSO that was launched on Fri, 01 Dec 2023 UTC via an FALCON 9 launch vehicle from the Air Force Western Test Range (AFWTR). Payload-class satellites include a variety of spacecraft equipped with specific instruments for various scientific and technological missions. These include communications satellites like Starlink; space stations such as the ISS; scientific satellites like the Hubble; Earth observation satellites from companies like Planet Labs, Umbra, and HawkEye 360; GPS; miniature CubeSats for education and research; and military/defense satellites.

Loading next visibility...
Identifier
58810, 2023-185T
Orbit
SSO
Country
Flag of DEDE / GER
Related business
Manufacturer
TUB
Mission
Operational Amateur Technology
Bus & Motor
CUBESAT 2U, Unknown motor
Mass
2.7 kg wet, 2.7 kg dry
Launch date (UTC)
2023-12-01 (3 years ago)
Launch vehicle
FALCON 9
Launch site
Air Force Western Test Range (AFWTR)
Object type
Payload
Rocket body
Debris
Shape & HBR
Box + 2 Pan, 0.3 m
Radar Cross Section
0.046 m², Medium (>0.1 m² and < 1m²)

Expand to show TLE details & history
Last TLE update: 21 hours ago

TLE from 21 hours ago
0 NANOFF A
1 58810U 23185T   26207.62192010  .00003639  00000-0  21240-3 0  9992
2 58810  97.5245 274.5141 0010602 163.8181 196.3390 15.12519633139007
Epoch: 2026-07-26T14:55Z
TLE epoch observation values (Epoch: 2026-07-26T14:55:33.896Z)
Latitude
-0.00007°
Longitude
106.30566°
Altitude
538.625 km
Speed
7.589 km/s
True Right ascension
18h 18m 03s
True Declination
0° 00' 00"
Sunlit
Object was in full shadow at epoch
Visualization orbit readout
Latitude
Unknown
Longitude
Unknown
Altitude
Unknown
Speed
Unknown
Apparent Right ascension
Unknown
Apparent Declination
Unknown
Sunlit
N/A
Visualization observer readout
Local Sidereal Time
01:16:04
Azimuth
Unknown
Elevation
Unknown
Doppler factor
Unknown
Orbital elements
Apogee altitude
532.819 km
Perigee altitude
518.181 km
Semi-major axis
6,903.637 km
Eccentricity
0.00106
Inclination
97.5245°
RAAN
274.5141°
Arg. of periapsis
163.8181°
True anomaly
196.30487°
Mean anomaly
196.339°
Eccentric anomaly
196.32193°
Mean motion
3.78378 °/min
Orbital period
95.14 mins
BSTAR
0.0002124
Loading maneuver chart data...
Computing Atmospheric mass density...
Loading historical data...
Loading historical data...
Loading historical data...
Loading historical data...
Loading historical data...
Loading historical data...
Loading historical data...

Documentation

Showing up to 5 results
|